sat.trackr.live / text

‹ back to catalog

ONEWEB-0556

NORAD 55798 · 2023-029C

PAYLOAD ACTIVE UNKNOWN

§ Identity

Operator
Country
UK
Launch date
2023-03-09
Launch site
AFETR
Launch vehicle
Mass (kg)
RCS (m²)

Purposes: comms

External: N2YO · Heavens-Above · Gunter

§ Orbital elements

Epoch: 2026-05-24T21:40:47.151264Z

Period
109.03 min
Inclination
87.9164°
Eccentricity
0.0002419
Mean motion
13.20770344 rev/d
Perigee alt
1,180.0 km
Apogee alt
1,183.6 km
Semi-major
7,559.9 km
B*
2.3640e-4
RAAN
279.1140°
Arg perigee
80.5499°
Mean anomaly
279.5907°
Rev number
15,807

§ Raw data

ONEWEB-05561 55798U 23029C   26144.90332351  .00000109  00000+0  23640-3 0  99902 55798  87.9164 279.1140 0002419  80.5499 279.5907 13.20770344158077

JSON: /api/v1/satellites/55798 · /tle

For live sub-satellite position, see the globe view (requires WebGL).

§ Visibility from observer

Set your observer location to see the next 7 days of passes ≥ 10°. The values pass through the URL so the page stays shareable.

No JS? Fill the form by hand. The geolocation button needs JavaScript.